Regional Weather Roundup
Issued by NWS

Home | Current Version | Previous Version | Graphics & Text | Print | Product List | Glossary On
Versions: 1 2 3 4 5 6 7 8 9 10 11 12 13 14 15 16 17 18 19 20 21 22 23 24 25 26 27 28 29 30 31 32 33 34 35 36 37 38 39 40 41 42 43 44 45 46 47 48 49 50
000
ASUS43 KLMK 111710
RWRKY
KENTUCKY REGIONAL WEATHER ROUNDUP
NATIONAL WEATHER SERVICE LOUISVILLE KY
100 PM EDT FRI JUL 11 2014

NOTE "FAIR" INDICATES FEW OR NO CLOUDS BELOW 12,000 FEET
WITH NO SIGNIFICANT WEATHER AND/OR OBSTRUCTIONS TO VISIBILITY.

KYZ001>023-026-027-061>063-070>075-111800-
WESTERN AND SOUTH CENTRAL KENTUCKY

CITY           SKY/WX    TMP DP  RH WIND       PRES   REMARKS
PADUCAH        SUNNY     86  65  49 CALM      30.18R
HENDERSON      SUNNY     84  63  48 CALM      30.19R
OWENSBORO      MOSUNNY   85  62  45 CALM      30.20R
HOPKINSVILLE   MOSUNNY   87  63  44 VRB3      30.18F
BOWLING GREEN  MOSUNNY   87  61  41 E3        30.19F
GLASGOW        MOSUNNY   86  60  41 CALM      30.19S
$$

KYZ024-025-028>034-038-045-046-053-111800-
NORTH CENTRAL KENTUCKY

CITY           SKY/WX    TMP DP  RH WIND       PRES   REMARKS
LOUISVILLE/SDF MOSUNNY   85  58  39 CALM      30.19S
LOUISVILLE/LOU LGT RAIN  84  58  40 VRB5      30.20S
FORT KNOX      MOSUNNY   81  64  55 NE2       30.19S
$$

KYZ035>037-039>044-047>052-055>060-089>105-111800-
NORTHEAST KENTUCKY

CITY           SKY/WX    TMP DP  RH WIND       PRES   REMARKS
LEXINGTON      MOSUNNY   85  59  41 SW5       30.21F
COVINGTON      MOSUNNY   83  56  39 NW3       30.22S
FRANKFORT      PTSUNNY   84  61  45 VRB3      30.20F
$$

KYZ054-064>069-076>088-106>120-111800-
SOUTHEAST KENTUCKY

CITY           SKY/WX    TMP DP  RH WIND       PRES   REMARKS
JACKSON        MOSUNNY   82  57  42 VRB5      30.23F
LONDON         MOSUNNY   86  56  35 E5        30.23S
SOMERSET       MOSUNNY   86  50  28 CALM      30.22S
MIDDLESBORO    SUNNY     84  61  45 NE6       30.22F
MONTICELLO     MOSUNNY   88  60  38 SE7       30.22F
$$



USA.gov is the U.S. government's official web portal to all federal, state and local government web resources and services.